Date String (YYYY-MM-DD hh:mm:ss) UTC,Instrument flags,absolute air pressure of the measurement (hPa),sample flow rate (lpm),inlet stack bypass flow (lpm),air temperature of the measurement (°C),ambient temperature measured by the external sensor (°C),aerosol sample conditioner tube jacket temperature (°C),OPC LED temperature (°C),internal box temperature (°C),relative humidity of the measurement (%),span deviation,mass concentration of particles derived from Lorenz-Mie calculation of OPC scattering (μg/m³),mass concentration of particles derived from Lorenz-Mie calculation of OPC scattering (μg/m³),mass concentration of particles derived from Lorenz-Mie calculation of OPC scattering (μg/m³)
DateTimeUTC,F1_M11,P_M11,Q1_M11,Q2_M11,T1_M11,T2_M11,T3_M11,T4_M11,T5_M11,U1_M11,ZSPAN_M11,X0_M11,X2_M11,X1_M11
2023-12-27 17:00:00,SystemResetWarning,0832.0,4.99,000.00,019.4,018.8,000.0,027.9,020.6,14.5,0000.0,0002.53,0000.79,0000.51
2023-12-27 17:01:00,SystemResetWarning,0832.0,5.00,000.00,019.4,018.8,000.0,027.8,020.7,14.4,0000.0,0002.51,0000.78,0000.51
2023-12-27 17:02:00,SystemResetWarning,0832.0,5.00,000.00,019.4,018.8,000.0,027.8,020.7,14.8,0000.0,0002.48,0000.77,0000.51
2023-12-27 17:03:00,SystemResetWarning,0832.0,5.00,000.00,019.5,018.8,000.0,027.8,020.8,15.3,0000.0,0002.50,0000.76,0000.50
2023-12-27 17:04:00,SystemResetWarning,0832.1,5.01,000.00,019.5,018.8,000.0,027.8,020.8,16.1,0000.0,0002.48,0000.75,0000.49
2023-12-27 17:05:00,SystemResetWarning,0832.1,5.00,000.00,019.5,018.8,000.0,027.8,020.8,17.0,0000.0,0001.51,0000.72,0000.48
2023-12-27 17:06:00,SystemResetWarning,0832.0,5.00,000.00,019.5,018.8,000.0,027.8,020.8,16.9,0000.0,0001.28,0000.72,0000.48
2023-12-27 17:07:00,SystemResetWarning,0832.0,5.00,000.00,019.5,018.8,000.0,027.8,020.8,16.8,0000.0,0001.10,0000.67,0000.47
2023-12-27 17:08:00,SystemResetWarning,0832.0,5.00,000.00,019.5,018.8,000.0,027.8,020.9,16.6,0000.0,0000.96,0000.63,0000.45
2023-12-27 17:09:00,SystemResetWarning,0832.0,5.00,000.00,019.5,018.8,000.0,027.8,020.9,16.8,0000.0,0000.92,0000.60,0000.43
2023-12-27 17:10:00,SystemResetWarning,0832.0,5.00,000.00,019.5,018.8,000.0,027.9,020.9,16.8,0000.0,0000.88,0000.58,0000.41
2023-12-27 17:11:00,SystemResetWarning,0832.0,5.01,000.00,019.5,018.8,000.0,027.9,020.9,16.1,0000.0,0000.84,0000.54,0000.40
2023-12-27 17:12:00,SystemResetWarning,0832.0,5.01,000.00,019.6,018.8,000.0,027.9,020.9,16.1,0000.0,0000.86,0000.56,0000.41
2023-12-27 17:13:00,SystemResetWarning,0831.9,5.00,000.00,019.6,018.9,000.0,027.9,020.9,15.2,0000.0,0000.87,0000.57,0000.42
2023-12-27 17:14:00,SystemResetWarning,0831.9,5.01,000.00,019.6,018.9,000.0,027.9,020.8,15.3,0000.0,0000.87,0000.59,0000.43
2023-12-27 17:15:00,SystemResetWarning,0831.8,5.00,000.00,019.5,018.9,000.0,027.9,020.8,15.7,0000.0,0000.91,0000.61,0000.45
2023-12-27 17:16:00,SystemResetWarning,0832.2,5.00,000.00,019.5,018.9,000.0,027.9,020.7,15.8,0000.0,0000.88,0000.61,0000.46
2023-12-27 17:17:00,SystemResetWarning,0831.7,4.99,000.00,019.5,018.9,000.0,027.9,020.7,15.6,0000.0,0000.87,0000.59,0000.46
2023-12-27 17:18:00,SystemResetWarning,0831.7,5.00,000.00,019.5,018.9,000.0,027.9,020.7,15.8,0000.0,0000.92,0000.63,0000.47
2023-12-27 17:19:00,SystemResetWarning,0831.6,5.00,000.00,019.5,018.9,000.0,027.9,020.6,16.0,0000.0,0001.00,0000.65,0000.49
2023-12-27 17:20:00,SystemResetWarning,0831.6,5.00,000.00,019.5,018.8,000.0,027.9,020.6,16.2,0000.0,0001.11,0000.68,0000.50
2023-12-27 17:21:00,SystemResetWarning,0831.7,5.00,000.00,019.5,018.8,000.0,027.8,020.6,16.3,0000.0,0001.18,0000.72,0000.51
2023-12-27 17:22:00,SystemResetWarning,0831.7,5.00,000.00,019.5,018.7,000.0,027.8,020.5,16.7,0000.0,0001.22,0000.73,0000.52
2023-12-27 17:23:00,SystemResetWarning,0832.1,4.99,000.00,019.5,018.7,000.0,027.8,020.4,16.9,0000.0,0001.20,0000.72,0000.53
2023-12-27 17:24:00,SystemResetWarning,0831.8,5.00,000.00,019.4,018.6,000.0,027.8,020.5,17.3,0000.0,0001.61,0000.75,0000.53
2023-12-27 17:25:00,SystemResetWarning,0832.0,5.00,000.00,019.4,018.6,000.0,027.8,020.6,16.6,0000.0,0002.35,0000.74,0000.53
2023-12-27 17:26:00,SystemResetWarning,0832.0,4.99,000.00,019.4,018.7,000.0,027.8,020.6,15.9,0000.0,0002.34,0000.74,0000.53
2023-12-27 17:27:00,SystemResetWarning,0832.0,5.01,000.00,019.4,018.7,000.0,027.8,020.7,15.8,0000.0,0002.42,0000.78,0000.54
2023-12-27 17:28:00,SystemResetWarning,0832.0,5.00,000.00,019.4,018.7,000.0,027.8,020.7,16.0,0000.0,0002.46,0000.81,0000.56
2023-12-27 17:29:00,SystemResetWarning,0832.0,5.00,000.00,019.5,018.8,000.0,027.8,020.7,16.3,0000.0,0002.42,0000.79,0000.57
2023-12-27 17:30:00,SystemResetWarning,0832.0,5.00,000.00,019.5,018.8,000.0,027.8,020.7,16.2,0000.0,0002.48,0000.82,0000.57
2023-12-27 17:31:00,SystemResetWarning,0832.0,5.00,000.00,019.5,018.8,000.0,027.8,020.7,16.3,0000.0,0002.45,0000.83,0000.57
2023-12-27 17:32:00,SystemResetWarning,0832.0,5.00,000.00,019.5,018.9,000.0,027.8,020.8,16.5,0000.0,0002.47,0000.83,0000.58
2023-12-27 17:33:00,SystemResetWarning,0832.0,5.00,000.00,019.5,018.9,000.0,027.8,020.7,16.2,0000.0,0002.68,0000.83,0000.58
2023-12-27 17:34:00,SystemResetWarning,0832.0,5.00,000.00,019.5,018.9,000.0,027.8,020.7,16.0,0000.0,0002.89,0000.86,0000.57
2023-12-27 17:35:00,SystemResetWarning,0832.0,5.00,000.00,019.5,018.8,000.0,027.8,020.7,16.0,0000.0,0002.81,0000.86,0000.58
2023-12-27 17:36:00,SystemResetWarning,0832.0,5.00,000.00,019.5,018.8,000.0,027.8,020.7,15.6,0000.0,0001.90,0000.88,0000.57
2023-12-27 17:37:00,SystemResetWarning,0831.9,5.00,000.00,019.5,018.8,000.0,027.8,020.7,15.2,0000.0,0002.54,0000.92,0000.58
2023-12-27 17:38:00,SystemResetWarning,0831.9,5.00,000.00,019.5,018.8,000.0,027.8,020.7,15.0,0000.0,0002.50,0000.89,0000.58
2023-12-27 17:39:00,SystemResetWarning,0832.0,5.00,000.00,019.5,018.8,000.0,027.8,020.7,14.9,0000.0,0002.46,0000.87,0000.57
2023-12-27 17:40:00,SystemResetWarning,0832.1,5.00,000.00,019.5,018.8,000.0,027.8,020.7,14.9,0000.0,0002.54,0000.87,0000.55
2023-12-27 17:41:00,SystemResetWarning,0832.1,5.00,000.00,019.5,018.8,000.0,027.8,020.7,15.5,0000.0,0002.52,0000.87,0000.55
2023-12-27 17:42:00,SystemResetWarning,0832.1,5.00,000.00,019.5,018.9,000.0,027.8,020.8,15.4,0000.0,0002.49,0000.87,0000.54
2023-12-27 17:43:00,SystemResetWarning,0832.1,5.00,000.00,019.5,018.9,000.0,027.8,020.8,16.0,0000.0,0002.94,0000.85,0000.53
2023-12-27 17:44:00,SystemResetWarning,0832.1,5.00,000.00,019.5,018.9,000.0,027.8,020.8,16.2,0000.0,0003.35,0000.83,0000.52
2023-12-27 17:45:00,SystemResetWarning,0832.1,5.00,000.00,019.5,018.9,000.0,027.8,020.8,15.8,0000.0,0003.11,0000.81,0000.52
2023-12-27 17:46:00,SystemResetWarning,0832.1,5.00,000.00,019.5,019.0,000.0,027.8,020.8,15.7,0000.0,0003.03,0000.79,0000.52
2023-12-27 17:47:00,SystemResetWarning,0832.0,5.00,000.00,019.6,019.0,000.0,027.8,020.8,16.1,0000.0,0003.00,0000.77,0000.51
2023-12-27 17:48:00,SystemResetWarning,0832.1,5.00,000.00,019.6,019.0,000.0,027.8,020.8,16.1,0000.0,0002.47,0000.73,0000.50
2023-12-27 17:49:00,SystemResetWarning,0832.0,5.00,000.00,019.6,019.0,000.0,027.8,020.8,16.3,0000.0,0002.41,0000.74,0000.50
2023-12-27 17:50:00,SystemResetWarning,0832.0,5.01,000.00,019.6,019.0,000.0,027.8,020.9,16.5,0000.0,0002.43,0000.75,0000.49
2023-12-27 17:51:00,SystemResetWarning,0831.8,5.00,000.00,019.6,019.0,000.0,027.8,020.9,16.4,0000.0,0002.39,0000.75,0000.50
2023-12-27 17:52:00,SystemResetWarning,0831.8,5.00,000.00,019.6,019.0,000.0,027.9,020.9,15.7,0000.0,0002.39,0000.77,0000.53
2023-12-27 17:53:00,SystemResetWarning,0831.6,5.00,000.00,019.6,019.0,000.0,027.9,020.9,15.8,0000.0,0002.52,0000.79,0000.55
2023-12-27 17:54:00,SystemResetWarning,0831.6,5.00,000.00,019.6,019.0,000.0,027.9,020.9,15.7,0000.0,0002.27,0000.85,0000.58
2023-12-27 17:55:00,SystemResetWarning,0831.5,5.00,000.00,019.6,019.1,000.0,027.9,020.9,15.8,0000.0,0001.90,0000.93,0000.60
2023-12-27 17:56:00,SystemResetWarning,0831.4,5.00,000.00,019.6,019.0,000.0,027.9,020.8,15.3,0000.0,0002.00,0000.99,0000.63
2023-12-27 17:57:00,SystemResetWarning,0831.5,5.00,000.00,019.6,019.0,000.0,027.9,020.8,14.6,0000.0,0002.12,0001.04,0000.66
2023-12-27 17:58:00,SystemResetWarning,0831.4,4.99,000.00,019.6,019.0,000.0,027.9,020.8,12.9,0000.0,0002.30,0001.09,0000.68
2023-12-27 17:59:00,SystemResetWarning,0831.4,5.00,000.00,019.6,019.0,000.0,027.9,020.8,13.9,0000.0,0002.45,0001.14,0000.71
